Retour au catalogue

ABS 7

KOREASAT 3

ActifCommunicationsGEO
NORAD 25894·PAYLOAD·🇰🇷 South Korea

Lancé Sep 4, 1999 depuis Guiana Space Centre

Loading…

TLE

FraisSource: Space-Track

Époque: Sep 14, 2026, 06:55 UTC

1 25894U 99046A   26257.28868437 -.00000116  00000-0  00000-0 0  9993
2 25894   6.6976  69.6561 0003211 139.5459 241.2580  0.99977787 97977

Suivez ABS 7 en temps réel avec AllMySat

Download on the App Store